Shungnak AP, Shungnak, AK, AK

10:54 PM AKST on December 08, 2019 (GMT -0900)
Shungnak AP, Shungnak, AK

Weather History for PAGH - November, 2019

Change the Weather History Date:

Saturday, November 16, 2019

  Actual Average (PAFM) Record (PAFM)
Temperature  
Mean Temperature -7 °F -  
Max Temperature 1 °F 13 °F 30 °F (1986)
Min Temperature -15 °F 5 °F -29 °F (1991)
Degree Days  
Heating Degree Days 72    
Moisture  
Dew Point -13 °F    
Average Humidity 78    
Maximum Humidity 86    
Minimum Humidity 66    
Precipitation  
Precipitation 0.00 in - - ()
Sea Level Pressure  
Sea Level Pressure 29.83 in    
Wind  
Wind Speed 5 mph (ESE)    
Max Wind Speed 12 mph    
Max Gust Speed -    
Visibility 10 miles    
Events      
Averages and records for this station are not official NWS values.
T = Trace of Precipitation, MM = Missing Value Source: NWS Daily Summary

Daily Weather History Graph

Daily Weather History Graph

Search for Another Location

Airport or City:

Astronomy

Nov. 16, 2019 Rise Set
Actual Time 10:30 AM AKST 3:55 PM AKST
Civil Twilight 9:17 AM AKST 5:08 PM AKST
Nautical Twilight 8:08 AM AKST 6:17 PM AKST
Astronomical Twilight 7:05 AM AKST 7:20 PM AKST
Moon 5:46 PM AKST (11/16) 4:30 PM AKST (11/16)
Length of Visible Light 7h 50m
Length of Day
5h 24m
Waning Gibbous, 81% of the Moon is Illuminated
Nov 16
Waning Gibbous
Nov 19
Last Quarter
Nov 26
New
Dec 3
First Quarter
Dec 11
Full

Hourly Weather History & Observations

Time (AKST) Temp. Windchill Dew Point Humidity Pressure Visibility Wind Dir Wind Speed Gust Speed Precip Events Conditions
12:56 AM 1.9 °F -14.7 °F -7.1 °F 66% 29.91 in 10.0 mi East 11.5 mph - N/A   Clear
1:56 AM -2.0 °F -13.9 °F -9.0 °F 72% 29.90 in 10.0 mi East 5.8 mph - N/A   Clear
2:56 AM -2.0 °F -15.4 °F -9.0 °F 72% 29.90 in 10.0 mi East 6.9 mph - N/A   Clear
3:56 AM -2.0 °F -18.7 °F -9.0 °F 72% 29.90 in 10.0 mi East 10.4 mph - N/A   Clear
4:56 AM -2.9 °F - -9.9 °F 72% 29.89 in 10.0 mi Calm Calm - N/A   Clear
5:56 AM -6.0 °F -14.7 °F -11.0 °F 79% 29.88 in 10.0 mi SSE 3.5 mph - N/A   Clear
6:56 AM -7.1 °F -15.9 °F -11.9 °F 79% 29.88 in 10.0 mi SE 3.5 mph - N/A   Clear
8:56 AM -9.0 °F -20.4 °F -13.0 °F 83% 29.86 in 10.0 mi East 4.6 mph - N/A   Clear
9:56 AM -11.0 °F -22.8 °F -14.1 °F 86% 29.86 in 10.0 mi NE 4.6 mph - N/A   Clear
10:56 AM -9.9 °F -21.5 °F -14.1 °F 82% 29.86 in 10.0 mi East 4.6 mph - N/A   Clear
12:56 PM -4.0 °F -12.4 °F -9.9 °F 76% 29.84 in 10.0 mi NE 3.5 mph - N/A   Clear
1:56 PM -5.1 °F - -11.9 °F 72% 29.83 in 10.0 mi Calm Calm - N/A   Clear
2:56 PM -7.1 °F - -13.0 °F 75% 29.81 in 10.0 mi Calm Calm - N/A   Clear
3:56 PM -9.0 °F -18.2 °F -14.1 °F 79% 29.79 in 10.0 mi SSW 3.5 mph - N/A   Clear
4:56 PM -11.0 °F - -14.1 °F 86% 29.78 in 10.0 mi Calm Calm - N/A   Clear
5:56 PM -11.9 °F - -15.0 °F 86% 29.77 in 10.0 mi Calm Calm - N/A   Clear
6:56 PM -11.0 °F - -16.1 °F 78% 29.78 in 10.0 mi Calm Calm - N/A   Clear
7:56 PM -14.1 °F -23.9 °F -18.0 °F 82% 29.77 in 10.0 mi ESE 3.5 mph - N/A   Clear
8:56 PM -15.0 °F -27.4 °F -18.9 °F 82% 29.77 in 10.0 mi ESE 4.6 mph - N/A   Clear
10:56 PM -15.0 °F -25.0 °F -20.0 °F 78% 29.75 in 10.0 mi East 3.5 mph - N/A   Clear
11:56 PM -14.1 °F -28.3 °F -18.0 °F 82% 29.74 in 10.0 mi SE 5.8 mph - N/A   Clear